Tracking 19297 objects as of 21-Nov-2018
HD Live streaming from Space Station
objects crossing your sky now

NAVSTAR 18 (USA 50)

Track NAVSTAR 18 (USA 50) now!
NAVSTAR 18 (USA 50) is classified as:


NORAD ID: 20452
Int'l Code: 1990-008A
Perigee: 21,165.9 km
Apogee: 21,241.8 km
Inclination: 54.8 °
Period: 759.5 minutes
Semi major axis: 27574 km
RCS: 1.5533 m2 (large)
Launch date: January 24, 1990
Source: United States (US)
Launch site: AIR FORCE EASTERN TEST RANGE (AFETR)
aabbcc
Your satellite tracking list
Your tracking list is empty




NASA's NSSDC Master Catalog

Two Line Element Set (TLE):
1 20452U 90008A   18324.77723191  .00000016  00000-0  00000+0 0  9991
2 20452  54.8441 230.3791 0013765 249.2633 290.4665  1.89597575203819
Source of the keplerian elements: AFSPC